Content
SEND FEEDBACK

Daily
Averages
Monthly
Summary
United States of America

PALMETTO, TENNESSEE


Home > North America > United States > Tennessee
Elevation: 77 feet     Latitude: 35 29N     Longitude: 086 35W

WEATHER
 
SELECT A DAY
Number of Records: 56,297;   Date Range: 9/2/10 - 9/20/14
 
SHARE

PRINT THIS DATA

[ ← Previous Day ]
WEATHER ALMANAC - SEPTEMBER 5, 2013
[ Next Day → ]
[ °C ]   °F
Weather ElementAverageHighLow
Temperature69.4 °F84.2 °F (3:15 pm)55.4 °F (4:15 am)
Dewpoint58.9 °F62.6 °F (9:15 am)53.6 °F (3:55 am)
Humidity72.3 %94 % (2:35 am)39 % (3:35 pm)
Barometer30.17 in30.20 in (7:55 am)30.15 in (1:15 am)
Wind Speed2.6 mph9.2 mph (1:35 pm)
Weather ElementAverage
Visibility9.9 mi
Wind DirectionENE (58 °)

Weather ElementTotal
Precipitation---
Cooling Degree Days4.8 (Base 65)
Growing Degree Days19.8 (Base 50)
Averaged from 71 records on September 5, 2013
WEATHER CONDITIONS BREAKOUT
WIND DIRECTION BREAKOUT
WEATHER BY HOUR - SEPTEMBER 5, 2013
[ °C ]   °F
Local TimeTemperatureDewpointHumidityBarometerVisibilityWind DirectionWind SpeedGust SpeedPrecipitationEventsConditions
12:35 AM60.8 °F57.2 °F88 %30.16 in10.0 miCalmClear
12:55 AM60.8 °F55.4 °F82 %30.16 in10.0 miCalmClear
1:15 AM59.0 °F55.4 °F88 %30.15 in10.0 miCalmClear
1:35 AM59.0 °F55.4 °F88 %30.15 in10.0 miCalmClear
1:55 AM59.0 °F55.4 °F88 %30.15 in10.0 miCalmClear
2:15 AM60.8 °F55.4 °F82 %30.15 in10.0 miCalmClear
2:35 AM59.0 °F57.2 °F94 %30.15 in10.0 miCalmClear
2:55 AM59.0 °F55.4 °F88 %30.15 in10.0 miCalmClear
3:15 AM57.2 °F55.4 °F94 %30.15 in4.0 miCalmClear
3:35 AM57.2 °F55.4 °F94 %30.15 in9.0 miCalmClear
3:55 AM57.2 °F53.6 °F88 %30.15 in10.0 miCalmClear
4:15 AM55.4 °F53.6 °F94 %30.16 in10.0 miCalmClear
4:35 AM57.2 °F55.4 °F94 %30.16 in10.0 miCalmClear
4:55 AM57.2 °F53.6 °F88 %30.16 in10.0 miCalmClear
5:15 AM57.2 °F53.6 °F88 %30.16 in10.0 miCalmClear
5:35 AM55.4 °F53.6 °F94 %30.17 in10.0 miCalmClear
5:55 AM57.2 °F53.6 °F88 %30.17 in10.0 miCalmClear
6:15 AM55.4 °F53.6 °F94 %30.17 in8.0 miCalmClear
6:35 AM55.4 °F53.6 °F94 %30.18 in10.0 miCalmClear
6:55 AM57.2 °F53.6 °F88 %30.18 in10.0 miCalmClear
7:15 AM60.8 °F55.4 °F82 %30.19 in10.0 miCalmClear
7:35 AM62.6 °F57.2 °F82 %30.19 in10.0 miCalmClear
7:55 AM64.4 °F60.8 °F88 %30.20 in10.0 miNE (40°)3.5 mphClear
8:15 AM64.4 °F60.8 °F88 %30.20 in10.0 miNE (40°)3.5 mphClear
8:35 AM66.2 °F60.8 °F83 %30.20 in10.0 miNE (50°)3.5 mphClear
8:55 AM66.2 °F60.8 °F83 %30.20 in10.0 miENE (60°)3.5 mphClear
9:15 AM69.8 °F62.6 °F78 %30.20 in10.0 miENE (60°)3.5 mphClear
9:35 AM71.6 °F62.6 °F73 %30.20 in10.0 miNE (50°)3.5 mphClear
9:55 AM73.4 °F62.6 °F69 %30.20 in10.0 miNE (50°)3.5 mphClear
10:15 AM75.2 °F62.6 °F65 %30.20 in10.0 miNNE (20°)4.6 mphClear
10:35 AM75.2 °F62.6 °F65 %30.20 in10.0 miNorth (10°)6.9 mphClear
10:55 AM77.0 °F62.6 °F61 %30.20 in10.0 miNNE (20°)6.9 mphClear
11:15 AM78.8 °F62.6 °F57 %30.20 in10.0 miENE (60°)5.8 mphClear
11:35 AM78.8 °F62.6 °F57 %30.20 in10.0 miENE (70°)3.5 mphClear
11:55 AM80.6 °F60.8 °F51 %30.20 in10.0 miCalmClear
12:15 PM80.6 °F60.8 °F51 %30.20 in10.0 miNorth (10°)5.8 mphClear
12:35 PM80.6 °F62.6 °F54 %30.20 in10.0 miNNE (20°)4.6 mphClear
12:55 PM82.4 °F60.8 °F48 %30.19 in10.0 miENE (70°)6.9 mphClear
1:15 PM80.6 °F60.8 °F51 %30.19 in10.0 miCalmClear
1:35 PM82.4 °F62.6 °F51 %30.19 in10.0 miNNW (340°)9.2 mphClear
1:55 PM82.4 °F62.6 °F51 %30.18 in10.0 miVariable6.9 mphClear
2:15 PM82.4 °F62.6 °F51 %30.17 in10.0 miNNE (20°)8.1 mphClear
2:35 PM82.4 °F62.6 °F51 %30.17 in10.0 miNNW (340°)5.8 mphClear
2:55 PM82.4 °F62.6 °F51 %30.16 in10.0 miNorth (360°)8.1 mphClear
3:15 PM84.2 °F59.0 °F42 %30.16 in10.0 miENE (60°)5.8 mphClear
3:35 PM82.4 °F55.4 °F39 %30.16 in10.0 miNE (50°)6.9 mphClear
3:55 PM82.4 °F59.0 °F45 %30.16 in10.0 miNorth (350°)9.2 mphClear
4:15 PM82.4 °F60.8 °F48 %30.16 in10.0 miNorth (360°)4.6 mphClear
4:35 PM82.4 °F57.2 °F42 %30.16 in10.0 miNE (40°)6.9 mphClear
4:55 PM82.4 °F55.4 °F39 %30.16 in10.0 miNNE (30°)5.8 mphClear
5:15 PM82.4 °F60.8 °F48 %30.16 in10.0 miNNE (20°)9.2 mphClear
5:35 PM80.6 °F57.2 °F45 %30.16 in10.0 miNNE (30°)5.8 mphClear
5:55 PM80.6 °F55.4 °F42 %30.15 in10.0 miNE (40°)4.6 mphClear
6:15 PM78.8 °F59.0 °F51 %30.15 in10.0 miNorth (10°)5.8 mphClear
6:35 PM77.0 °F60.8 °F57 %30.15 in10.0 miNorth (360°)4.6 mphClear
6:55 PM75.2 °F62.6 °F65 %30.16 in10.0 miNorth (360°)3.5 mphClear
7:15 PM73.4 °F62.6 °F69 %30.16 in10.0 miNorth (360°)3.5 mphClear
7:35 PM71.6 °F62.6 °F73 %30.16 in10.0 miCalmClear
7:55 PM71.6 °F62.6 °F73 %30.16 in10.0 miCalmClear
8:15 PM71.6 °F62.6 °F73 %30.17 in10.0 miNorth (360°)3.5 mphClear
8:35 PM69.8 °F62.6 °F78 %30.17 in10.0 miCalmClear
8:55 PM68.0 °F60.8 °F78 %30.17 in10.0 miCalmClear
9:15 PM66.2 °F60.8 °F83 %30.18 in10.0 miCalmClear
9:35 PM64.4 °F60.8 °F88 %30.18 in10.0 miCalmClear
9:55 PM64.4 °F60.8 °F88 %30.19 in10.0 miCalmClear
10:15 PM64.4 °F60.8 °F88 %30.19 in10.0 miCalmClear
10:35 PM64.4 °F60.8 °F88 %30.19 in10.0 miCalmClear
10:55 PM62.6 °F60.8 °F94 %30.19 in10.0 miCalmClear
11:15 PM62.6 °F57.2 °F82 %30.18 in10.0 miCalmClear
11:35 PM62.6 °F59.0 °F88 %30.18 in10.0 miCalmClear
11:55 PM60.8 °F57.2 °F88 %30.19 in10.0 miCalmClear
Hourly data recorded from KTHA, located miles away from Palmetto, Tennessee







STORIES FROM OUR PARTNERS